Namest Nad Oslav, Czech Republic

12:26 AM CEST on October 23, 2019 (GMT +0200)
Namest

Weather History for LKNA - August, 2019

Change the Weather History Date:

Friday, August 16, 2019

  Actual Average Record
Temperature  
Mean Temperature 62 °F -  
Max Temperature 67 °F - - ()
Min Temperature 56 °F - - ()
Degree Days  
Heating Degree Days 4    
Growing Degree Days 12 (Base 50)    
Moisture  
Dew Point 54 °F    
Average Humidity 71    
Maximum Humidity 88    
Minimum Humidity 48    
Precipitation  
Precipitation 0.12 in - - ()
Sea Level Pressure  
Sea Level Pressure 30.03 in    
Wind  
Wind Speed 8 mph ()    
Max Wind Speed 18 mph    
Max Gust Speed -    
Visibility 11.2 miles    
Events Rain , Thunderstorm    
T = Trace of Precipitation, MM = Missing Value Source: Averaged Metar Reports

Daily Weather History Graph

Daily Weather History Graph

Search for Another Location

Airport or City:

Astronomy

Aug. 16, 2019 Rise Set
Actual Time 5:48 AM CEST 8:10 PM CEST
Civil Twilight 5:12 AM CEST 8:45 PM CEST
Nautical Twilight 4:28 AM CEST 9:29 PM CEST
Astronomical Twilight 3:37 AM CEST 10:20 PM CEST
Moon 8:59 PM CEST (8/16) 6:21 AM CEST (8/16)
Length of Visible Light 15h 32m
Length of Day
14h 22m
Full, 99% of the Moon is Illuminated
Aug 16
Full
Aug 23
Last Quarter
Aug 30
New
Sep 6
First Quarter
Sep 14
Full

Hourly Weather History & Observations

Time (CEST) Temp. Dew Point Humidity Pressure Visibility Wind Dir Wind Speed Gust Speed Precip Events Conditions
12:00 AM 64 °F 50 °F 50% 29.98 in 19 mi WNW 13.4 mph - -   Overcast
12:00 AM 64.4 °F 50.0 °F 59% 30.01 in - NW 9.2 mph - N/A   Clear
1:00 AM 62 °F 51 °F 58% 29.98 in 19 mi WNW 6.7 mph - -   Mostly Cloudy
2:00 AM 61 °F 52 °F 64% 29.99 in 19 mi West 6.7 mph - -   Mostly Cloudy
3:00 AM 60 °F 52 °F 67% 29.99 in 19 mi WNW 8.9 mph - -   Partly Cloudy
3:00 AM 59.0 °F 53.6 °F 82% 30.01 in - WNW 8.1 mph - N/A   Clear
4:00 AM 59 °F 52 °F 71% 29.99 in 19 mi West 4.5 mph - -   Mostly Cloudy
4:00 AM 59.0 °F 53.6 °F 82% 30.01 in 6.2 mi West 4.6 mph - N/A   Mostly Cloudy
5:00 AM 59.0 °F 53.6 °F 82% 30.01 in 6.2 mi WSW 4.6 mph - N/A   Scattered Clouds
6:00 AM 57 °F 53 °F 83% 30.01 in 19 mi West 6.7 mph - -   Partly Cloudy
6:00 AM 59.0 °F 53.6 °F 82% 30.01 in - West 6.9 mph - N/A   Clear
7:00 AM 57 °F 53 °F 82% 30.02 in 19 mi West 11.2 mph - -   Partly Cloudy
7:00 AM 57.2 °F 53.6 °F 88% 30.01 in - West 10.4 mph - N/A   Clear
8:00 AM 60 °F 54 °F 74% 30.02 in 9 mi WNW 15.7 mph - -   Scattered Clouds
8:00 AM 60.8 °F 55.4 °F 82% 30.04 in 6.2 mi WNW 13.8 mph - N/A   Partly Cloudy
9:00 AM 62 °F 54 °F 68% 30.03 in 19 mi NW 13.4 mph - -   Mostly Cloudy
9:00 AM 60.8 °F 55.4 °F 82% 30.04 in 6.2 mi NW 12.7 mph - N/A   Mostly Cloudy
10:00 AM 63 °F 54 °F 65% 30.04 in 16 mi NW 11.2 mph - -   Mostly Cloudy
10:00 AM 62.6 °F 55.4 °F 77% 30.06 in 6.2 mi NW 12.7 mph - N/A   Mostly Cloudy
11:00 AM 63 °F 53 °F 62% 30.04 in 16 mi NW 8.9 mph - -   Mostly Cloudy
11:00 AM 62.6 °F 55.4 °F 77% 30.06 in 6.2 mi WNW 10.4 mph - N/A   Mostly Cloudy
12:00 PM 66 °F 53 °F 54% 30.02 in 16 mi WNW 11.2 mph - -   Scattered Clouds
12:00 PM 66.2 °F 53.6 °F 64% 30.06 in 6.2 mi WNW 11.5 mph - N/A   Mostly Cloudy
12:09 PM 66.2 °F 53.6 °F 64% 30.04 in 6.2 mi WNW 8.1 mph - N/A Rain Light Rain Showers
1:00 PM 62 °F 57 °F 79% 30.04 in 12 mi West 4.5 mph - - Rain Light Rain Showers
1:00 PM 62.6 °F 57.2 °F 82% 30.06 in 6.2 mi West 5.8 mph - N/A   Mostly Cloudy
1:02 PM 62.6 °F 57.2 °F 82% 30.06 in 6.2 mi West 4.6 mph - N/A Thunderstorm Thunderstorm
1:16 PM 64.4 °F 57.2 °F 77% 30.06 in 6.2 mi WNW 9.2 mph - N/A Rain , Thunderstorm Light Thunderstorms and Rain
2:00 PM 62 °F 58 °F 81% 30.04 in 12 mi WNW 11.2 mph - - Rain Light Rain
2:00 PM 60.8 °F 57.2 °F 88% 30.06 in 6.2 mi WNW 10.4 mph - N/A Rain Light Rain Showers
2:15 PM 64.4 °F 59.0 °F 83% 30.04 in 6.2 mi NW 8.1 mph - N/A   Mostly Cloudy
3:00 PM 67 °F 56 °F 59% 30.00 in 16 mi NW 6.7 mph - - Rain Light Rain Showers
3:00 PM 66.2 °F 57.2 °F 73% 30.04 in 6.2 mi NW 9.2 mph - N/A   Mostly Cloudy
4:00 PM 68.0 °F 55.4 °F 64% 30.04 in 6.2 mi WNW 9.2 mph - N/A   Mostly Cloudy
4:16 PM 68.0 °F 53.6 °F 60% 30.04 in 6.2 mi WNW 9.2 mph - N/A Thunderstorm Thunderstorm
4:21 PM 64.4 °F 53.6 °F 68% 30.04 in 6.2 mi West 12.7 mph - N/A Rain , Thunderstorm Light Thunderstorms and Rain
4:37 PM 60.8 °F 57.2 °F 88% 30.04 in 6.2 mi WNW 18.4 mph - N/A Rain Light Rain Showers
5:00 PM 62 °F 53 °F 65% 30.03 in 19 mi NW 6.7 mph - - Thunderstorm Light Thunderstorm
5:00 PM 60.8 °F 55.4 °F 82% 30.04 in 6.2 mi NW 9.2 mph - N/A   Mostly Cloudy
6:00 PM 64 °F 51 °F 54% 30.03 in 22 mi NW 8.9 mph - -   Scattered Clouds
7:00 PM 66 °F 51 °F 48% 30.02 in 22 mi NW 13.4 mph - -   Scattered Clouds
7:00 PM 66.2 °F 51.8 °F 60% 30.04 in - NW 12.7 mph - N/A   Clear
8:00 PM 64 °F 49 °F 48% 30.03 in 22 mi NNW 6.7 mph - -   Partly Cloudy
8:00 PM 64.4 °F 50.0 °F 59% 30.06 in - NNW 6.9 mph - N/A   Clear
9:00 PM 62.6 °F 50.0 °F 63% 30.06 in - NW 4.6 mph - N/A   Clear
10:00 PM 60.8 °F 51.8 °F 72% 30.06 in - WNW 4.6 mph - N/A   Clear
11:00 PM 60 °F 51 °F 63% 30.06 in 16 mi NE 2.2 mph - -  
11:00 PM 57.2 °F 51.8 °F 82% 30.06 in - North 3.5 mph - N/A   Clear